[[{"header":{"parameterUnit":"m.s-1","parameterCategory":1,"la1":30.2991,"la2":30.254,"lo1":-89.0895,"lo2":-89.0444,"dy":0.0017,"dx":0.0017,"nx":28,"ny":28,"refTime":"2024-04-22T09:00:00:Z","depth":0,"parameterNumber":2,"parameterNumberName":"U-component_of_WINDS"},"data":[0,0,0,0,0,0,0,0,0,0,0,0,0,0,0,0,0,0,0,0,0,0,0,0,0,0,0,0,0,0,0,0,0,0,0,0,0,0,0,0,0,0,0,0,0,0,0,0,0,0,0,0,0,0,0,0,0,0,-0.5711,-0.5711,0,-0.5729,-0.5729,-0.5729,-0.5728,-0.5728,-0.5727,-0.5727,-0.5745,-0.5746,-0.5746,0,0,0,0,0,0,0,0,0,0,0,0,0,-0.5675,-0.5675,-0.5711,-0.5711,-0.5711,-0.5729,-0.5729,-0.5729,-0.5728,-0.5728,-0.5727,-0.5727,-0.5745,-0.5745,-0.5746,0,0,0,0,0,0,0,0,0,0,0,0,0,-0.5691,-0.5676,-0.5711,-0.5713,-0.5713,-0.5729,-0.5729,-0.5729,-0.5728,-0.5728,-0.5727,-0.5727,-0.5744,-0.5745,-0.5746,-0.5761,0,0,-0.575,-0.575,0,0,0,0,0,0,0,0,-0.569,-0.5693,-0.5712,-0.5713,-0.5713,-0.5726,-0.5723,-0.574,-0.5728,-0.5722,-0.5727,-0.5727,-0.5739,-0.574,-0.5744,-0.5762,-0.5762,-0.575,-0.575,-0.5751,-0.5751,0,0,0,0,0,0,0,-0.5689,-0.5692,-0.5718,-0.5713,-0.5713,-0.5712,-0.5714,-0.5726,-0.5732,-0.5723,-0.5723,-0.5725,-0.5739,-0.5743,-0.5745,-0.5763,-0.575,-0.5751,-0.5751,-0.5752,-0.5792,-0.5792,0,0,0,0,0,0,-0.5688,-0.5691,-0.5717,-0.5718,-0.5701,-0.5713,-0.5716,-0.5722,-0.5732,-0.5734,-0.5725,-0.5725,-0.5742,-0.5744,-0.5745,-0.5763,-0.5751,-0.5752,-0.5753,-0.5791,-0.5792,-0.5792,0,0,0,0,0,0,-0.5687,-0.569,-0.5717,-0.5705,-0.5708,-0.5714,-0.5722,-0.5723,-0.5727,-0.5734,-0.5735,-0.5729,-0.5742,-0.5744,-0.5757,-0.5763,-0.5752,-0.5753,-0.5791,-0.5791,-0.5792,-0.5797,0,0,0,0,0,0,-0.5686,-0.569,-0.5696,-0.5705,-0.5709,-0.5728,-0.5722,-0.5723,-0.5729,-0.5729,-0.5738,-0.5739,-0.5741,-0.5755,-0.5758,-0.5764,-0.5754,-0.579,-0.5791,-0.5792,-0.5796,-0.5798,-0.5799,0,0,0,0,0,-0.5685,-0.5696,-0.5696,-0.5699,-0.5716,-0.5728,-0.5731,-0.5733,-0.573,-0.5735,-0.574,-0.5739,-0.5762,-0.5757,-0.576,-0.5766,-0.579,-0.5791,-0.5792,-0.5796,-0.5797,-0.5799,0,0,0,0,0,0,-0.5688,-0.5698,-0.5697,-0.5712,-0.572,-0.5728,-0.5736,-0.5735,-0.5744,-0.5743,-0.5746,-0.5748,-0.5761,-0.5765,-0.5759,-0.578,-0.5775,-0.5777,-0.5777,-0.5779,-0.578,-0.5779,-0.5755,0,0,0,0,0,-0.569,-0.57,-0.5708,-0.572,-0.5724,-0.5729,-0.5735,-0.5736,-0.5744,-0.5747,-0.5752,-0.5759,-0.5768,-0.5774,-0.5782,-0.5797,-0.5798,-0.5803,-0.5804,-0.5805,-0.5807,-0.5814,-0.5816,-0.5795,-0.5795,-0.5795,0,0,-0.5696,-0.5702,-0.5708,-0.5721,-0.5727,-0.5736,-0.5732,-0.5742,-0.5749,-0.5748,-0.5761,-0.5765,-0.5773,-0.5786,-0.5792,-0.579,-0.5812,-0.5806,-0.5807,-0.5808,-0.5815,-0.5817,-0.5819,-0.5796,-0.5796,-0.5796,0,0,-0.571,-0.5716,-0.5727,-0.5733,-0.5741,-0.5745,-0.5747,-0.5756,-0.5758,-0.5771,-0.577,-0.5778,-0.5794,-0.5799,-0.5804,-0.5819,-0.5818,-0.5822,-0.5829,-0.5836,-0.5837,-0.5839,-0.5844,-0.5846,-0.5823,-0.5823,-0.5823,0,-0.5716,-0.573,-0.5733,-0.5743,-0.5748,-0.5748,-0.5759,-0.5764,-0.5775,-0.5778,-0.5776,-0.5794,-0.58,-0.5814,-0.5818,-0.5822,-0.5825,-0.5821,-0.5837,-0.5839,-0.584,-0.5845,-0.5847,-0.5824,-0.5824,-0.5824,-0.5824,0,-0.5736,-0.5746,-0.5753,-0.5764,-0.577,-0.5781,-0.5784,-0.579,-0.5791,-0.5794,-0.5807,-0.5813,-0.5823,-0.5826,-0.5827,-0.5841,-0.5839,-0.5836,-0.5831,-0.5842,-0.5847,-0.5849,-0.5824,-0.5824,-0.5824,-0.5824,0,0,-0.5754,-0.5765,-0.5768,-0.5772,-0.5781,-0.5788,-0.5798,-0.5808,-0.5813,-0.582,-0.5828,-0.5841,-0.5838,-0.5844,-0.5845,-0.5851,-0.5862,-0.5848,-0.5848,-0.585,-0.5877,-0.5879,-0.5881,-0.5862,-0.5862,-0.5862,-0.5876,0,-0.5769,-0.5787,-0.5789,-0.5805,-0.5813,-0.5813,-0.5821,-0.5827,-0.583,-0.5838,-0.5841,-0.585,-0.5847,-0.585,-0.5856,-0.586,-0.5868,-0.5859,-0.5869,-0.5869,-0.5867,-0.5883,-0.5885,-0.5898,-0.5878,-0.5878,-0.5879,0,-0.5789,-0.5796,-0.5813,-0.582,-0.5824,-0.5832,-0.584,-0.5847,-0.5854,-0.5856,-0.5861,-0.5862,-0.5871,-0.5866,-0.5879,-0.5873,-0.5877,-0.5879,-0.588,-0.5881,-0.5875,-0.5884,-0.5902,-0.5904,-0.5882,-0.5881,-0.5881,0,-0.5799,-0.5814,-0.5825,-0.5829,-0.5838,-0.5843,-0.5847,-0.5853,-0.5859,-0.5866,-0.5869,-0.5877,-0.5882,-0.5888,-0.589,-0.5886,-0.5903,-0.5897,-0.5904,-0.5904,-0.5908,-0.5907,-0.5926,-0.5911,-0.5911,-0.5911,-0.5911,0,-0.5816,-0.5826,-0.583,-0.5837,-0.5848,-0.585,-0.5861,-0.5865,-0.587,-0.5878,-0.5878,-0.5884,-0.5887,-0.5894,-0.5896,-0.5906,-0.5908,-0.591,-0.591,-0.591,-0.591,-0.5913,-0.5912,-0.5911,-0.5911,-0.5911,-0.5911,0,-0.583,-0.5833,-0.5846,-0.5853,-0.5854,-0.5862,-0.5868,-0.5875,-0.5877,-0.5887,-0.5889,-0.5893,-0.5902,-0.5905,-0.5915,-0.5916,-0.5928,-0.5927,-0.5925,-0.5925,-0.5932,-0.5931,-0.5953,-0.5955,-0.5939,-0.5939,-0.5939,0,-0.584,-0.5848,-0.5855,-0.586,-0.5864,-0.5872,-0.5877,-0.588,-0.5885,-0.5893,-0.5898,-0.5906,-0.5913,-0.5926,-0.593,-0.5938,-0.5938,-0.5945,-0.5939,-0.5938,-0.5937,-0.5937,-0.5937,-0.5946,-0.5946,-0.5946,-0.5946,0,-0.5858,-0.5859,-0.5866,-0.5874,-0.588,-0.5887,-0.5893,-0.5897,-0.59,-0.5905,-0.5914,-0.5919,-0.5929,-0.5937,-0.5945,-0.5948,-0.5948,-0.5948,-0.595,-0.5949,-0.5948,-0.5948,-0.5928,-0.5947,-0.5947,-0.5947,-0.5947,-0.5947,-0.587,-0.5876,-0.5882,-0.5891,-0.5895,-0.5901,-0.5907,-0.591,-0.5918,-0.5926,-0.5927,-0.5936,-0.5942,-0.5952,-0.5955,-0.5962,-0.596,-0.5963,-0.5964,-0.5964,-0.5965,-0.5947,-0.5964,-0.5964,-0.5964,-0.5964,-0.5964,0,-0.5887,-0.5891,-0.5898,-0.5907,-0.5913,-0.5911,-0.5918,-0.5923,-0.5931,-0.5937,-0.5943,-0.5952,-0.596,-0.5964,-0.5972,-0.5976,-0.5976,-0.5978,-0.5978,-0.5978,-0.5966,-0.5964,-0.5978,-0.5978,-0.5978,-0.5978,-0.5978,-0.5978,-0.5897,-0.5907,-0.5909,-0.5922,-0.5925,-0.5934,-0.5938,-0.5943,-0.5947,-0.5958,-0.5964,-0.5967,-0.5971,-0.5979,-0.5986,-0.5987,-0.5989,-0.5991,-0.5992,-0.5981,-0.5979,-0.5978,-0.5975,-0.5992,-0.5992,-0.6004,-0.6004,-0.6004]},{"header":{"parameterUnit":"m.s-1","parameterCategory":1,"la1":30.2991,"la2":30.254,"lo1":-89.0895,"lo2":-89.0444,"dy":0.0017,"dx":0.0017,"nx":28,"ny":28,"refTime":"2024-04-22T09:00:00:Z","depth":0,"parameterNumber":3,"parameterNumberName":"V-component_of_WINDS"},"data":[0,0,0,0,0,0,0,0,0,0,0,0,0,0,0,0,0,0,0,0,0,0,0,0,0,0,0,0,0,0,0,0,0,0,0,0,0,0,0,0,0,0,0,0,0,0,0,0,0,0,0,0,0,0,0,0,0,0,-3.7061,-3.7062,0,-3.7156,-3.7157,-3.7158,-3.7164,-3.7163,-3.7162,-3.7161,-3.7254,-3.7257,-3.726,0,0,0,0,0,0,0,0,0,0,0,0,0,-3.6879,-3.6883,-3.7061,-3.7062,-3.7063,-3.7156,-3.7157,-3.7158,-3.7164,-3.7163,-3.7161,-3.716,-3.7252,-3.7256,-3.7261,0,0,0,0,0,0,0,0,0,0,0,0,0,-3.6965,-3.6884,-3.706,-3.7077,-3.708,-3.7155,-3.7157,-3.7159,-3.7164,-3.7163,-3.7161,-3.716,-3.7251,-3.7256,-3.7261,-3.7325,0,0,-3.7277,-3.7279,0,0,0,0,0,0,0,0,-3.696,-3.6971,-3.7073,-3.7076,-3.7079,-3.7146,-3.7127,-3.7214,-3.7165,-3.7132,-3.7161,-3.7159,-3.7219,-3.7227,-3.7248,-3.733,-3.7334,-3.7278,-3.7281,-3.7283,-3.7284,0,0,0,0,0,0,0,-3.6954,-3.6967,-3.7098,-3.7075,-3.7078,-3.7079,-3.7089,-3.7144,-3.7183,-3.7135,-3.7135,-3.7147,-3.722,-3.7243,-3.725,-3.7335,-3.7277,-3.7282,-3.7285,-3.7287,-3.7474,-3.7476,0,0,0,0,0,0,-3.6945,-3.6962,-3.7095,-3.7101,-3.7014,-3.7083,-3.7095,-3.7126,-3.7183,-3.719,-3.7148,-3.7147,-3.7235,-3.7244,-3.7253,-3.7332,-3.7283,-3.7288,-3.7291,-3.7473,-3.7475,-3.7477,0,0,0,0,0,0,-3.6941,-3.6957,-3.7091,-3.7032,-3.7049,-3.7088,-3.7123,-3.7129,-3.7152,-3.7193,-3.7199,-3.7164,-3.7234,-3.7246,-3.7308,-3.7335,-3.729,-3.7295,-3.747,-3.7473,-3.7476,-3.749,0,0,0,0,0,0,-3.6936,-3.6956,-3.6981,-3.7033,-3.7052,-3.7145,-3.7125,-3.7132,-3.7161,-3.7161,-3.721,-3.7216,-3.7234,-3.73,-3.7313,-3.7342,-3.7299,-3.7468,-3.7472,-3.7475,-3.7487,-3.7493,-3.7497,0,0,0,0,0,-3.693,-3.698,-3.6983,-3.6999,-3.7085,-3.7147,-3.7158,-3.7178,-3.7164,-3.7189,-3.7215,-3.7215,-3.7331,-3.7306,-3.7321,-3.7351,-3.7466,-3.7471,-3.7475,-3.7485,-3.7491,-3.7497,0,0,0,0,0,0,-3.6929,-3.6987,-3.699,-3.7059,-3.7099,-3.7148,-3.718,-3.7185,-3.7227,-3.7224,-3.7246,-3.7257,-3.7318,-3.7341,-3.7313,-3.7417,-3.7397,-3.7404,-3.7399,-3.7406,-3.7411,-3.7404,-3.7303,0,0,0,0,0,-3.6938,-3.6984,-3.7032,-3.7088,-3.7108,-3.7141,-3.7168,-3.7181,-3.7221,-3.7237,-3.7268,-3.7306,-3.7351,-3.738,-3.7424,-3.7491,-3.7501,-3.7519,-3.7524,-3.7529,-3.7534,-3.7571,-3.7579,-3.749,-3.749,-3.749,0,0,-3.6955,-3.6992,-3.702,-3.7089,-3.7121,-3.7167,-3.7154,-3.7204,-3.7238,-3.7244,-3.7305,-3.7329,-3.7373,-3.7438,-3.7467,-3.7458,-3.7561,-3.7534,-3.7537,-3.754,-3.7576,-3.7584,-3.7592,-3.7493,-3.7493,-3.7492,0,0,-3.7009,-3.7043,-3.7093,-3.7126,-3.7175,-3.7196,-3.7209,-3.7258,-3.7275,-3.7336,-3.7342,-3.7382,-3.7459,-3.749,-3.7516,-3.7584,-3.7585,-3.7598,-3.7624,-3.766,-3.7667,-3.7673,-3.7697,-3.7705,-3.7603,-3.7603,-3.7603,0,-3.7023,-3.7095,-3.7118,-3.7168,-3.7198,-3.7208,-3.7258,-3.7288,-3.7348,-3.7368,-3.7358,-3.7455,-3.7486,-3.7557,-3.7574,-3.7595,-3.7609,-3.7591,-3.7665,-3.7671,-3.7677,-3.77,-3.7708,-3.7605,-3.7604,-3.7604,-3.7604,0,-3.7109,-3.7159,-3.7194,-3.7254,-3.7288,-3.7337,-3.7367,-3.7399,-3.7408,-3.7431,-3.7493,-3.753,-3.7582,-3.76,-3.7609,-3.7674,-3.7666,-3.766,-3.764,-3.7686,-3.7708,-3.7717,-3.7606,-3.7606,-3.7606,-3.7605,0,0,-3.7164,-3.7238,-3.725,-3.7277,-3.7332,-3.737,-3.7421,-3.7473,-3.7499,-3.754,-3.7582,-3.7648,-3.7643,-3.7672,-3.7686,-3.7717,-3.7768,-3.7707,-3.7708,-3.7716,-3.784,-3.7843,-3.7853,-3.7769,-3.7771,-3.7772,-3.7836,0,-3.7224,-3.7315,-3.7338,-3.7415,-3.7461,-3.7472,-3.7515,-3.7553,-3.7576,-3.7617,-3.7642,-3.7688,-3.7679,-3.7696,-3.7728,-3.7755,-3.7792,-3.7751,-3.7807,-3.7808,-3.7794,-3.7864,-3.7867,-3.7925,-3.7844,-3.7846,-3.7847,0,-3.7305,-3.735,-3.7432,-3.7482,-3.7502,-3.7541,-3.7591,-3.7631,-3.7674,-3.7688,-3.7722,-3.7733,-3.7784,-3.7763,-3.7834,-3.7805,-3.783,-3.7846,-3.7849,-3.7854,-3.7829,-3.7869,-3.7944,-3.7952,-3.786,-3.7859,-3.7858,0,-3.7335,-3.7417,-3.7476,-3.75,-3.756,-3.7587,-3.7613,-3.7655,-3.7685,-3.7728,-3.7747,-3.7795,-3.7821,-3.7858,-3.7881,-3.7863,-3.7949,-3.793,-3.7961,-3.7961,-3.7977,-3.7976,-3.8056,-3.7996,-3.7996,-3.7995,-3.7995,0,-3.7398,-3.7448,-3.7491,-3.7527,-3.7583,-3.7609,-3.7663,-3.7689,-3.7727,-3.7767,-3.778,-3.7817,-3.7846,-3.7888,-3.7906,-3.7961,-3.7973,-3.7985,-3.7989,-3.7983,-3.7981,-3.7998,-3.7994,-3.7998,-3.7997,-3.7997,-3.7996,0,-3.7441,-3.7472,-3.7538,-3.759,-3.7604,-3.7643,-3.7687,-3.7722,-3.7747,-3.7798,-3.7812,-3.7849,-3.7898,-3.7926,-3.7987,-3.7999,-3.8061,-3.8063,-3.8047,-3.8048,-3.8077,-3.8074,-3.817,-3.8183,-3.8115,-3.8116,-3.8116,0,-3.7478,-3.7517,-3.7574,-3.7604,-3.7631,-3.7677,-3.7709,-3.7736,-3.7767,-3.782,-3.7849,-3.79,-3.7942,-3.802,-3.8052,-3.8099,-3.8102,-3.8132,-3.8109,-3.8102,-3.8101,-3.8098,-3.8101,-3.8136,-3.8136,-3.8137,-3.8137,0,-3.7541,-3.7555,-3.76,-3.7652,-3.7689,-3.773,-3.7771,-3.7794,-3.7827,-3.7862,-3.7914,-3.7947,-3.8011,-3.8061,-3.8111,-3.8136,-3.8142,-3.8145,-3.8154,-3.8148,-3.8136,-3.8142,-3.8056,-3.8142,-3.8141,-3.8141,-3.8141,-3.8141,-3.7581,-3.7616,-3.7662,-3.7713,-3.7747,-3.7785,-3.7821,-3.785,-3.7895,-3.795,-3.7963,-3.8017,-3.806,-3.8128,-3.8155,-3.8197,-3.8191,-3.8205,-3.8208,-3.8211,-3.8212,-3.8131,-3.8207,-3.8206,-3.8206,-3.8206,-3.8206,0,-3.7644,-3.7675,-3.7721,-3.7778,-3.7818,-3.7823,-3.7868,-3.79,-3.7948,-3.7988,-3.803,-3.809,-3.8138,-3.8175,-3.8224,-3.8251,-3.8255,-3.8263,-3.826,-3.8266,-3.8215,-3.8201,-3.8259,-3.8259,-3.8259,-3.8259,-3.8259,-3.8259,-3.7681,-3.774,-3.776,-3.7836,-3.7866,-3.7921,-3.7946,-3.7981,-3.8013,-3.808,-3.8121,-3.8145,-3.8184,-3.8236,-3.8281,-3.829,-3.8307,-3.8315,-3.8324,-3.8275,-3.8269,-3.8264,-3.8251,-3.8319,-3.8319,-3.8372,-3.8372,-3.8373]}]]